Погода в Черном Отроге

Россия / Оренбургская область     51°53′04″N   56°00′03″E
темп.,
°C
ветер,
м/с
пор.,
м/с
влажн.,
%
обл.,
%
осадки,
мм/ч
давл.,
гПа
погр.,
м
13 мая, чт
чт1323:00+16в355118 0.0 102757
02:00+14в34496 0.0 102747
05:00+13в33525 0.0 102731
08:00+17вюв35505 0.0 1027179
11:00+22юв45365 0.0 1027821
14:00+25юв44290 0.0 10271762
17:00+26юв34292 0.0 10261860
20:00+21в33470 0.0 102640
14 мая, пт
пт1423:00+17в33480 0.0 102723
02:00+16вюв33490 0.0 102620
05:00+15вюв22510 0.0 102713
08:00+18вюв24480 0.0 1028161
11:00+24ююв34350 0.0 1028697
14:00+27ю33270 0.0 10271971
17:00+28ююв23250 0.0 10262197
20:00+24юв33410 0.0 102520
15 мая, сб
сб1523:00+19вюв22430 0.0 102611
02:00+17вюв22470 0.0 102511
05:00+16в11490 0.0 102611
08:00+20вюв23460 0.0 1027134
11:00+26ююв33340 0.0 1026642
14:00+29ю22240 0.0 10252467
17:00+29ююв12230 0.0 10242697
20:00+25в33411 0.0 102336
16 мая, вс
вс1623:00+21вюв22410 0.0 102315
02:00+19вюв11431 0.0 102311
05:00+18всв11452 0.0 102411
08:00+21вюв12444 0.0 1024118
11:00+27юв33353 0.0 1023551
14:00+30ююв22271 0.0 10222731
17:00+30вюв22258 0.0 10213128
20:00+25вюв33391 0.0 102027
17 мая, пн
пн1723:00+21с365261 0.0 1021137
02:00+19ююв125766 0.0 102113
05:00+19в355389 0.1 102073
08:00+22в115137 0.0 1021110
11:00+27юв113615 0.0 1021629
14:00+29юз223292 0.0 10201915
17:00+30ссв13266 0.0 10192189
20:00+26сз224259 0.0 101842